Weather History for PAFS - April, 2014

Change the Weather History Date:

Thursday, April 3, 2014

  Actual Average Record
Temperature  
Mean Temperature 26 °F -  
Max Temperature 37 °F - - ()
Min Temperature 15 °F - - ()
Degree Days  
Heating Degree Days 39    
Moisture  
Dew Point 10 °F    
Average Humidity 49    
Maximum Humidity 71    
Minimum Humidity 32    
Precipitation  
Precipitation 0.00 in - - ()
Sea Level Pressure  
Sea Level Pressure 29.67 in    
Wind  
Wind Speed 6 mph (NE)    
Max Wind Speed 14 mph    
Max Gust Speed -    
Visibility 10 miles    
Events      
Averages and records for this station are not official NWS values.
T = Trace of Precipitation, MM = Missing Value Source: NWS Daily Summary

Daily Weather History Graph

Daily Weather History Graph

Search for Another Location

Airport or City:

Trip Planner

Search our weather history database for the weather conditions in past years. The results will help you decide how hot, cold, wet, or windy it might be!

Date:

Astronomy

Apr. 03, 2014 Rise Set
Actual Time 7:29 AM AKDT 9:12 PM AKDT
Civil Twilight 6:41 AM AKDT 10:01 PM AKDT
Nautical Twilight 5:39 AM AKDT 11:04 PM AKDT
Astronomical Twilight 4:19 AM AKDT 12:27 AM AKDT
Moon 8:58 AM AKDT (4/3) 1:50 AM AKDT (4/3)
Length of Visible Light 15h 19m
Length of Day
13h 43m
Waxing Crescent, 18% of the Moon is Illuminated
Apr 3
Waxing Crescent
Apr 7
First Quarter
Apr 14
Full
Apr 21
Last Quarter
Apr 28
New

Hourly Weather History & Observations

Time (AKDT) Temp. Windchill Dew Point Humidity Pressure Visibility Wind Dir Wind Speed Gust Speed Precip Events Conditions
12:56 AM 24.1 °F - 10.0 °F 55% 29.80 in 10.0 mi Calm Calm - N/A   Clear
1:56 AM 23.0 °F 13.9 °F 9.1 °F 55% 29.78 in 10.0 mi NNE 8.1 mph - N/A   Clear
2:56 AM 22.1 °F 12.0 °F 9.1 °F 58% 29.78 in 10.0 mi NNE 9.2 mph - N/A   Clear
3:56 AM 19.0 °F 13.9 °F 8.1 °F 62% 29.77 in 10.0 mi ENE 3.5 mph - N/A   Clear
4:56 AM 20.1 °F 13.6 °F 8.1 °F 60% 29.76 in 10.0 mi NNE 4.6 mph - N/A   Clear
5:56 AM 18.1 °F - 8.1 °F 65% 29.75 in 10.0 mi Calm Calm - N/A   Clear
6:56 AM 15.1 °F - 7.2 °F 71% 29.74 in 10.0 mi Calm Calm - N/A   Clear
7:56 AM 16.2 °F - 7.2 °F 68% 29.74 in 10.0 mi Calm Calm - N/A   Clear
8:56 AM 19.0 °F 10.0 °F 6.1 °F 57% 29.73 in 10.0 mi NE 6.9 mph - N/A   Clear
9:56 AM 23.0 °F 13.1 °F 6.1 °F 48% 29.72 in 10.0 mi NE 9.2 mph - N/A   Clear
10:56 AM 27.1 °F 16.9 °F 7.2 °F 43% 29.70 in 10.0 mi NE 11.5 mph - N/A   Clear
11:56 AM 28.0 °F 18.1 °F 7.2 °F 41% 29.69 in 10.0 mi ENE 11.5 mph - N/A   Clear
12:56 PM 31.1 °F 23.1 °F 8.1 °F 38% 29.68 in 10.0 mi ENE 9.2 mph - N/A   Clear
1:56 PM 34.0 °F 26.0 °F 9.1 °F 36% 29.66 in 10.0 mi NE 10.4 mph - N/A   Clear
2:56 PM 34.9 °F 25.7 °F 12.0 °F 39% 29.63 in 10.0 mi NE 13.8 mph - N/A   Clear
3:56 PM 36.9 °F 29.6 °F 10.0 °F 33% 29.62 in 10.0 mi NE 10.4 mph - N/A   Clear
4:56 PM 37.9 °F 30.5 °F 10.0 °F 32% 29.60 in 10.0 mi NE 11.5 mph - N/A   Clear
5:56 PM 36.9 °F 29.6 °F 11.1 °F 35% 29.58 in 10.0 mi NE 10.4 mph - N/A   Clear
7:56 PM 34.9 °F 27.7 °F 12.0 °F 39% 29.56 in 10.0 mi ENE 9.2 mph - N/A   Clear
8:56 PM 32.0 °F 23.6 °F 13.1 °F 46% 29.56 in 10.0 mi NE 10.4 mph - N/A   Clear
9:56 PM 30.0 °F 20.0 °F 13.1 °F 49% 29.56 in 10.0 mi NE 12.7 mph - N/A   Scattered Clouds
10:56 PM 30.0 °F 20.0 °F 13.1 °F 49% 29.55 in 10.0 mi NE 12.7 mph - N/A   Mostly Cloudy
11:56 PM 29.1 °F 19.4 °F 14.0 °F 53% 29.55 in 10.0 mi NE 11.5 mph - N/A   Overcast